Torna al catalogo

CZ-6A DEB

AttivoPO
NORAD 60791·DEBRIS·🇨🇳 China

Lanciato Aug 6, 2024 da Taiyuan Satellite Launch Center

Loading…

Prossimi Passaggi (prossime 24 ore)

TLE

AggiornatoSource: Space-Track

Epoca: Sep 14, 2026, 09:48 UTC

1 60791U 24140FS  26257.40835144  .00000258  00000-0  12745-3 0  9992
2 60791  88.8362 251.1992 0075204 299.4137  59.9557 14.13213363107771

Traccia CZ-6A DEB in tempo reale con AllMySat

Download on the App Store